Temperature
19 19 18 17 17 16 16 16 16 16 16 15 15 15 15 15 15 15 15 15 15 15 14 14 14 14 14 14 14 14 14 14 14 14 14 14 14 13 13 13 14 13 13
21 20 18 17 17 16 16 16 16 15 15 15 15 15 15 14 14 14 14 14 14 14 13 13 13 13 14 14 14 14 14 14 13 13 13 13 13 12 13 13 12 12 12
20 19 18 17 16 16 16 16 15 15 15 15 15 14 14 14 14 14 14 14 14 13 13 13 13 13 13 14 14 14 13 13 12 12 12 12 12 12 12 12 12 11 12
19 19 18 17 16 16 16 15 15 15 15 15 14 14 14 13 13 13 13 13 13 13 13 13 13 13 13 14 14 13 13 12 12 11 11 11 11 11 11 11 11 11 11
18 18 17 17 16 16 15 15 15 15 15 14 14 14 13 13 13 13 13 13 13 13 13 13 13 13 13 13 13 13 12 11 11 11 11 11 11 10 10 10 10 11 11
17 17 17 16 16 15 15 15 15 14 14 14 14 13 13 13 13 13 13 13 13 12 12 12 13 13 13 13 13 13 12 11 11 11 11 11 10 10 10 10 10 10 10
16 16 16 16 15 15 15 15 15 14 14 13 13 13 13 13 13 13 13 12 12 12 12 12 12 12 13 13 13 12 12 11 10 10 10 11 10 10 10 10 10 10 10
16 16 16 15 15 15 15 15 14 14 14 13 13 13 13 12 13 12 12 12 12 12 12 12 12 12 12 13 12 12 11 11 10 10 10 10 10 9 9 9 10 9 9
16 16 15 15 15 15 14 14 14 14 13 13 13 13 12 12 12 12 12 12 12 12 12 11 12 12 12 12 12 12 11 10 10 10 10 10 10 9 9 9 9 9 9
15 15 15 15 14 14 14 14 14 13 13 13 13 12 12 12 12 12 12 11 11 11 11 11 12 12 12 12 12 11 11 10 10 10 10 10 10 9 9 9 9 9 9
15 15 14 14 14 14 14 13 13 13 13 13 12 12 12 12 12 11 11 11 11 11 11 11 12 12 11 11 11 11 10 10 10 10 10 10 9 9 9 9 9 9 9
15 14 14 14 14 14 13 13 13 13 12 12 12 12 12 11 11 11 11 11 11 11 11 11 11 11 11 11 10 10 10 9 9 10 10 9 9 9 8 8 8 8 8
15 14 14 14 14 13 13 13 13 12 12 12 12 12 11 10 10 11 11 11 11 11 11 11 11 11 10 10 10 10 9 9 9 9 9 9 9 9 8 8 8 8 8
15 14 14 14 13 13 13 13 13 12 12 12 12 11 11 10 11 11 11 11 11 11 11 11 10 10 10 10 10 9 9 9 9 9 9 9 9 9 8 8 8 8 8
15 15 14 14 14 13 13 13 12 12 12 12 11 11 11 11 11 11 11 11 11 10 10 10 10 10 10 9 9 9 9 9 9 9 9 9 9 9 8 8 8 8 8
16 15 14 14 14 13 13 13 12 12 12 12 11 11 11 11 11 11 11 11 10 10 10 10 10 10 9 9 9 9 9 9 9 9 9 9 9 9 9 8 8 8 8
16 15 15 14 14 14 13 13 12 12 12 12 12 11 11 11 11 11 11 11 10 10 10 10 10 9 9 9 9 9 9 9 8 8 9 9 9 9 9 8 8 8 8
16 15 15 14 14 14 13 13 12 12 12 12 12 12 11 11 11 11 11 11 11 10 10 10 10 9 9 9 9 9 9 8 8 8 8 8 9 9 9 9 9 9 9
17 16 15 15 14 14 13 13 12 12 12 12 12 12 11 11 11 11 11 11 11 10 10 10 10 9 9 9 9 9 8 8 8 8 8 8 8 9 9 9 9 9 9
17 16 16 15 14 13 13 13 12 12 12 12 12 12 12 11 11 11 11 11 11 10 10 10 10 9 9 9 8 8 8 8 8 8 8 8 9 9 9 9 9 9 9
18 17 16 15 14 13 13 13 13 13 12 12 12 12 12 12 12 12 11 11 11 11 10 10 10 9 9 9 8 8 8 8 8 8 8 9 9 9 9 9 9 9 9
18 17 16 15 14 14 14 14 14 13 13 12 12 12 12 12 12 12 12 11 11 11 10 10 10 9 9 9 9 8 8 8 8 8 8 8 9 9 9 9 9 9 9
18 17 16 16 15 14 14 13 12 12 11 12 12 12 12 12 12 12 12 11 11 11 11 10 10 10 9 9 9 9 8 8 9 8 9 9 8 9 9 9 9 9 9
19 18 17 16 15 15 14 13 13 13 13 15 14 14 13 12 12 12 12 11 11 11 11 10 10 10 9 9 9 9 9 9 9 8 8 9 8 8 9 9 9 9 8
19 18 17 16 15 15 14 14 14 14 15 14 13 13 13 12 12 12 12 11 11 11 11 10 10 10 9 9 9 9 9 9 9 9 8 8 8 9 9 9 9 9 8
19 18 17 16 15 15 14 14 14 15 15 14 13 13 13 13 12 12 12 11 11 11 11 10 10 10 9 9 9 9 9 9 9 9 8 9 9 9 8 8 8 8 8
Wind_Speed
13 18 25 24 22 21 21 20 20 20 19 19 18 18 18 18 18 18 18 18 18 18 18 19 19 20 20 20 20 20 20 20 20 21 21 20 20 20 20 19 18 17 19
18 22 27 25 23 22 21 21 21 20 19 19 18 18 17 17 17 17 17 17 17 18 18 19 19 19 19 19 19 18 18 17 17 18 19 19 19 19 19 18 18 16 18
21 23 25 25 23 22 22 22 21 20 19 18 18 18 17 17 17 17 17 17 17 17 18 18 19 18 18 18 17 16 15 14 13 14 16 16 17 17 17 17 17 17 16
21 22 23 25 24 23 23 22 21 20 20 19 18 18 17 17 17 17 17 17 17 18 18 18 18 18 17 17 16 15 13 12 12 13 15 16 15 15 15 15 16 16 16
19 21 23 26 25 24 24 23 22 21 20 19 18 18 17 17 17 17 17 17 17 17 17 17 17 17 16 16 15 13 12 11 12 15 16 16 14 14 15 15 15 15 15
19 19 24 25 25 24 24 23 22 21 20 19 18 18 18 18 18 17 17 17 17 17 17 17 16 16 15 15 13 12 10 10 12 15 16 16 13 13 14 14 14 14 15
18 19 24 25 25 24 24 23 22 21 20 19 19 18 19 18 17 17 16 16 16 16 16 15 15 15 14 13 12 10 9 10 13 15 16 15 13 13 13 13 14 14 14
18 19 22 24 24 24 23 23 22 21 20 19 19 19 19 18 17 16 16 15 15 15 15 14 14 14 13 12 10 8 8 9 10 13 15 13 12 12 12 13 13 13 14
17 18 17 20 21 23 23 22 21 21 20 20 19 19 18 18 17 16 15 15 15 14 14 14 14 13 12 11 8 6 7 8 9 12 13 11 10 11 11 12 12 13 14
16 17 16 16 18 19 19 21 21 21 20 19 19 19 19 17 16 16 15 14 14 14 13 13 13 12 11 9 6 3 4 6 9 14 13 11 10 10 11 11 12 12 13
16 16 15 15 15 17 18 20 21 20 20 20 19 20 19 16 16 15 15 14 14 13 13 12 12 11 9 7 4 1 3 4 11 14 12 10 10 10 11 11 12 13 14
17 17 16 16 15 15 16 18 17 17 18 18 17 18 15 15 15 15 16 14 14 13 12 11 10 10 8 7 5 2 1 4 11 12 11 10 9 10 10 11 12 13 13
16 16 16 15 15 14 11 14 12 14 15 16 18 17 15 14 15 15 13 12 13 12 11 10 9 8 8 7 5 3 3 7 10 12 10 10 9 8 9 10 11 11 11
16 16 16 16 15 14 12 10 10 9 10 11 16 17 13 9 10 11 10 12 12 11 11 10 8 7 7 7 5 4 5 7 10 12 11 10 8 8 8 9 9 10 10
16 16 16 16 16 14 12 9 9 8 9 12 15 16 14 9 7 9 9 11 11 11 10 7 6 6 6 5 4 4 5 7 9 11 10 9 8 8 7 7 8 8 9
17 18 16 16 16 14 12 10 9 8 10 12 13 15 16 13 9 8 7 8 9 11 11 7 6 5 4 5 4 4 5 6 8 10 11 10 9 7 6 6 7 7 7
18 18 17 16 17 16 13 12 9 9 10 8 12 15 16 15 12 9 6 6 8 11 11 7 6 5 4 4 3 3 4 5 5 8 11 11 9 8 6 6 5 6 6
17 18 18 16 17 16 13 11 9 9 9 8 12 14 15 16 16 10 6 6 10 11 8 4 4 4 4 3 3 2 3 3 3 5 7 9 9 9 7 5 5 4 4
19 19 19 17 17 16 14 11 9 9 8 9 12 12 14 16 17 12 7 7 12 8 5 4 4 4 4 3 3 3 2 2 3 4 5 7 7 9 8 6 5 3 3
18 19 19 17 16 15 13 10 8 9 8 8 9 10 14 15 17 13 8 9 10 6 5 5 5 4 4 4 3 2 2 2 3 3 4 7 7 7 8 8 7 5 3
17 20 20 19 18 16 14 13 12 12 10 9 8 12 15 15 16 12 7 8 8 7 7 7 5 6 4 4 3 1 1 2 3 3 4 5 6 7 7 7 7 7 6
19 20 21 21 20 18 15 14 11 10 8 8 7 10 15 15 16 13 9 8 8 7 8 8 6 5 4 5 4 3 2 2 3 3 3 4 5 7 7 8 7 7 7
19 20 21 22 21 20 17 12 11 9 8 8 11 11 12 15 15 13 12 9 9 9 8 9 8 8 6 5 5 5 4 4 2 2 4 4 5 4 5 8 8 8 7
18 18 20 22 21 20 19 17 18 16 14 13 12 10 11 13 14 15 14 12 10 9 9 9 9 7 8 6 5 4 3 3 3 2 3 4 6 6 5 6 8 10 10
17 18 19 20 21 20 21 20 19 14 12 9 10 12 13 12 13 14 14 12 11 10 10 10 9 8 7 6 5 4 3 1 2 3 3 3 3 4 5 6 8 10 11
16 17 17 19 20 21 22 21 20 18 15 14 14 15 14 11 12 14 14 12 11 10 11 10 10 11 9 8 6 5 5 4 4 4 4 3 4 5 5 5 6 8 11
Wind_Direction
143 152 156 152 149 147 144 138 132 129 124 120 116 113 110 106 104 101 99 97 96 95 93 92 90 88 86 84 83 81 81 81 80 77 73 70 68 66 63 62 62 57 57
142 151 154 152 151 148 145 139 134 130 126 123 121 117 114 112 108 105 103 101 100 98 96 93 91 89 87 86 85 84 84 85 85 83 78 72 69 67 65 64 63 61 58
142 149 153 152 151 149 145 140 136 133 129 126 124 121 118 116 112 108 106 104 103 100 97 94 92 91 89 88 87 86 85 83 80 77 80 74 67 65 64 62 60 59 57
142 148 153 152 151 149 146 142 138 136 132 128 126 124 121 118 114 110 109 107 104 101 99 96 94 93 92 90 88 86 83 74 64 65 72 69 65 63 61 59 58 57 56
141 149 151 152 150 149 147 144 141 138 135 132 129 127 125 121 117 113 111 108 105 102 101 100 98 97 94 91 88 85 77 65 60 72 77 71 62 63 61 59 57 56 55
142 146 149 153 151 149 147 145 143 140 138 135 133 130 128 123 119 115 112 110 109 107 104 103 101 98 96 92 88 81 67 55 65 70 71 67 58 61 61 58 56 55 54
144 143 151 154 152 150 148 147 144 142 141 138 135 132 129 124 121 119 116 115 114 112 110 107 104 101 97 94 88 76 55 47 77 76 72 63 57 60 59 57 54 55 53
142 143 152 155 153 152 151 149 147 146 145 142 138 135 130 127 125 124 122 120 119 116 114 111 108 103 99 95 88 70 44 44 70 80 76 64 59 60 60 57 55 54 53
140 144 151 154 153 153 152 151 150 149 147 144 141 136 133 131 130 129 126 124 123 119 117 115 112 107 102 98 89 64 36 34 60 74 74 60 60 60 61 58 55 56 54
142 147 154 155 154 153 152 151 150 149 147 145 140 135 133 133 133 132 130 129 126 123 121 118 115 111 107 105 98 63 16 27 72 75 70 62 62 63 62 61 59 59 58
149 152 159 160 158 156 154 152 149 148 146 142 137 135 135 135 136 136 132 133 131 129 127 125 122 121 120 120 123 81 357 66 86 80 67 65 65 64 66 66 64 63 60
160 160 164 163 160 157 156 152 152 150 148 147 145 146 151 149 147 137 137 138 137 135 133 134 138 141 147 155 174 213 303 89 94 90 73 70 70 68 69 70 66 63 59
164 164 166 163 160 157 152 156 158 156 160 161 156 164 164 147 134 132 137 136 138 143 144 147 160 183 171 156 167 152 76 72 87 91 81 77 74 72 73 71 67 63 59
168 169 167 163 160 158 155 160 159 157 166 163 162 170 159 144 141 145 148 155 160 165 155 168 191 181 152 151 148 124 97 80 90 97 88 81 78 78 74 72 70 66 61
172 171 170 164 162 160 158 163 162 161 165 161 162 171 158 149 150 150 159 162 171 162 159 185 183 156 149 144 126 113 110 104 105 105 102 90 85 79 74 76 71 67 63
175 174 171 167 164 162 163 165 164 163 163 160 161 168 162 159 155 154 156 161 166 158 168 182 167 150 142 130 123 115 110 114 117 121 121 107 96 87 83 82 77 69 62
177 173 173 171 167 167 166 168 164 164 165 158 162 170 165 162 157 157 152 157 159 161 166 176 161 147 129 125 131 118 103 105 120 133 135 130 119 104 97 90 82 71 61
174 173 173 174 171 170 169 167 163 167 165 160 164 170 168 164 161 159 151 158 161 163 163 158 145 137 134 143 145 130 115 116 127 123 129 137 137 127 115 107 97 82 62
176 174 173 173 173 171 168 166 165 168 165 163 166 170 172 168 165 162 156 162 162 158 157 162 153 151 151 154 142 137 142 141 136 137 140 135 132 138 140 139 130 117 82
176 174 173 171 172 168 167 166 165 168 169 168 169 173 172 172 169 166 162 166 163 156 163 165 162 159 151 152 144 140 154 161 157 165 159 147 151 157 162 165 167 162 162
174 173 173 173 174 171 174 176 177 179 175 175 175 177 176 174 173 169 167 169 165 166 170 170 163 161 160 144 119 120 258 216 199 184 166 162 173 181 180 181 183 181 185
178 176 175 176 178 178 180 181 178 172 173 174 173 180 181 180 178 178 171 173 170 170 175 178 166 160 167 156 149 147 196 264 264 206 185 186 183 182 191 196 194 191 193
182 179 179 178 180 181 176 172 169 168 171 181 187 189 187 185 183 182 178 173 175 175 181 183 172 166 172 180 176 166 170 205 212 231 211 199 193 191 196 198 199 204 205
183 179 178 178 180 180 176 178 179 183 188 192 188 186 185 187 186 186 183 181 180 180 182 185 178 172 168 181 198 210 194 160 150 199 252 223 207 203 202 196 200 205 209
180 178 178 178 180 179 180 183 185 189 191 181 179 183 188 192 192 189 188 188 187 187 185 185 181 179 178 178 181 186 214 223 174 159 215 238 236 226 208 197 198 203 207
179 177 177 178 181 181 183 186 189 191 186 180 184 188 191 193 195 194 192 193 192 190 188 186 184 184 186 184 185 179 170 175 197 186 199 212 224 234 216 203 199 204 206
Height
1481 1485 1489 1493 1497 1501 1505 1508 1511 1514 1516 1518 1521 1523 1524 1526 1528 1529 1531 1532 1534 1535 1536 1537 1538 1538 1539 1540 1540 1541 1542 1542 1543 1543 1543 1543 1543 1543 1543 1543 1543 1543 1542
1477 1483 1488 1492 1497 1501 1505 1508 1511 1514 1516 1518 1521 1523 1525 1526 1528 1530 1531 1533 1534 1535 1536 1537 1538 1539 1540 1540 1541 1542 1543 1543 1544 1544 1544 1544 1544 1544 1544 1544 1544 1543 1543
1477 1482 1487 1491 1496 1500 1504 1508 1511 1514 1516 1519 1521 1523 1525 1527 1528 1530 1531 1533 1534 1536 1537 1538 1539 1539 1540 1541 1542 1543 1544 1545 1545 1546 1545 1545 1545 1545 1545 1545 1545 1545 1544
1477 1481 1486 1491 1495 1500 1504 1507 1511 1513 1516 1519 1521 1523 1525 1527 1529 1530 1532 1533 1535 1536 1537 1538 1539 1540 1541 1542 1543 1544 1545 1546 1547 1547 1546 1546 1546 1547 1546 1546 1546 1546 1545
1478 1481 1486 1490 1495 1499 1503 1507 1510 1513 1516 1518 1521 1523 1525 1527 1529 1530 1532 1534 1535 1536 1537 1538 1540 1541 1541 1542 1544 1545 1546 1547 1547 1548 1547 1547 1547 1548 1547 1547 1547 1547 1546
1478 1481 1485 1490 1494 1499 1503 1506 1510 1513 1516 1518 1521 1523 1525 1527 1529 1531 1532 1534 1535 1536 1538 1539 1540 1541 1542 1543 1545 1546 1547 1548 1548 1548 1548 1548 1548 1549 1549 1548 1548 1548 1547
1477 1481 1485 1490 1494 1498 1502 1506 1509 1513 1516 1518 1521 1523 1525 1527 1529 1531 1532 1534 1536 1537 1538 1540 1541 1542 1543 1544 1545 1547 1548 1548 1549 1549 1549 1549 1549 1550 1549 1549 1549 1549 1548
1477 1480 1485 1490 1494 1498 1502 1505 1509 1512 1515 1518 1521 1523 1525 1527 1529 1531 1533 1534 1536 1537 1539 1540 1541 1542 1544 1545 1546 1547 1548 1549 1550 1550 1550 1550 1550 1550 1550 1550 1550 1549 1549
1477 1480 1484 1489 1494 1498 1501 1505 1508 1512 1515 1518 1520 1523 1525 1527 1529 1531 1533 1534 1536 1538 1539 1541 1542 1543 1544 1546 1547 1548 1549 1550 1550 1550 1550 1550 1551 1551 1551 1550 1550 1550 1550
1477 1480 1484 1488 1492 1497 1501 1504 1508 1511 1514 1517 1520 1522 1525 1527 1529 1531 1533 1534 1536 1538 1539 1541 1542 1544 1545 1546 1548 1549 1550 1551 1551 1551 1551 1551 1552 1552 1551 1551 1551 1551 1550
1476 1479 1483 1487 1491 1495 1499 1503 1507 1510 1514 1517 1519 1522 1524 1526 1528 1530 1532 1534 1536 1538 1540 1541 1543 1544 1546 1547 1549 1550 1551 1551 1551 1551 1551 1552 1552 1552 1552 1552 1552 1551 1551
1473 1477 1481 1485 1489 1494 1498 1501 1505 1509 1512 1515 1518 1521 1523 1526 1528 1530 1532 1534 1536 1538 1540 1542 1543 1545 1546 1548 1549 1550 1551 1552 1552 1551 1552 1552 1552 1553 1553 1552 1552 1551 1551
1470 1475 1479 1484 1488 1492 1495 1499 1503 1507 1510 1514 1517 1520 1523 1525 1527 1529 1532 1534 1536 1538 1540 1542 1544 1545 1547 1548 1550 1551 1551 1552 1552 1552 1552 1552 1552 1553 1553 1553 1552 1552 1551
1469 1473 1478 1482 1486 1490 1493 1497 1501 1505 1508 1512 1515 1519 1522 1524 1526 1528 1531 1533 1535 1537 1540 1542 1544 1546 1547 1549 1550 1551 1551 1552 1552 1552 1552 1552 1553 1553 1553 1553 1553 1552 1551
1467 1471 1475 1479 1483 1487 1491 1496 1500 1503 1507 1511 1514 1517 1520 1523 1525 1527 1530 1532 1535 1537 1539 1542 1544 1546 1547 1549 1550 1551 1551 1552 1552 1552 1552 1552 1553 1553 1553 1553 1553 1552 1552
1463 1468 1473 1477 1481 1485 1489 1493 1497 1501 1505 1509 1512 1516 1519 1521 1524 1526 1529 1532 1534 1536 1539 1541 1544 1546 1547 1548 1549 1551 1551 1552 1552 1552 1552 1552 1552 1552 1553 1553 1553 1552 1552
1459 1464 1469 1474 1478 1482 1486 1491 1495 1499 1503 1506 1510 1514 1517 1520 1522 1525 1528 1530 1533 1535 1538 1540 1543 1545 1546 1548 1549 1550 1551 1551 1552 1552 1552 1552 1552 1552 1552 1552 1552 1552 1551
1456 1460 1465 1470 1475 1479 1484 1488 1493 1496 1500 1504 1507 1511 1514 1517 1520 1523 1526 1528 1531 1534 1536 1539 1541 1543 1545 1546 1548 1549 1550 1551 1551 1551 1551 1551 1551 1551 1552 1552 1551 1551 1551
1451 1455 1460 1466 1471 1476 1481 1486 1490 1494 1497 1501 1504 1508 1512 1515 1518 1520 1523 1526 1529 1531 1534 1537 1539 1541 1543 1545 1547 1548 1549 1549 1550 1550 1550 1550 1550 1550 1551 1551 1551 1550 1550
1446 1451 1456 1461 1467 1472 1478 1483 1487 1491 1494 1497 1501 1504 1508 1512 1515 1518 1521 1524 1526 1529 1532 1534 1537 1540 1542 1543 1545 1546 1547 1548 1548 1549 1549 1549 1549 1550 1549 1549 1549 1549 1549
1441 1445 1450 1455 1461 1467 1472 1476 1480 1484 1488 1493 1497 1501 1504 1508 1511 1514 1517 1520 1523 1526 1529 1532 1534 1537 1539 1541 1543 1545 1546 1546 1546 1547 1547 1547 1548 1548 1548 1548 1548 1547 1547
1433 1439 1444 1449 1454 1460 1464 1469 1474 1479 1484 1489 1493 1497 1500 1504 1507 1510 1513 1516 1519 1523 1526 1529 1531 1534 1536 1538 1540 1542 1543 1545 1544 1545 1545 1545 1545 1546 1546 1546 1546 1546 1545
1426 1431 1437 1442 1447 1453 1458 1465 1471 1477 1482 1485 1488 1491 1495 1499 1502 1506 1509 1513 1516 1519 1522 1525 1527 1530 1532 1535 1537 1539 1540 1540 1541 1542 1542 1543 1543 1543 1544 1544 1544 1543 1543
1418 1425 1430 1435 1441 1446 1452 1458 1462 1467 1470 1474 1479 1484 1489 1494 1497 1501 1505 1508 1511 1514 1517 1521 1524 1526 1529 1531 1533 1535 1538 1538 1539 1539 1540 1540 1540 1540 1541 1541 1541 1541 1540
1412 1418 1424 1430 1435 1440 1446 1450 1455 1460 1464 1470 1475 1480 1484 1488 1492 1496 1500 1503 1506 1509 1513 1516 1519 1522 1524 1526 1529 1531 1533 1535 1536 1536 1536 1537 1537 1537 1538 1538 1538 1538 1537
1405 1411 1417 1423 1429 1434 1439 1444 1449 1453 1458 1464 1468 1472 1477 1481 1486 1490 1493 1497 1501 1504 1507 1511 1514 1517 1520 1522 1525 1527 1529 1530 1532 1533 1533 1533 1534 1534 1535 1535 1534 1534 1534